Time,TemperatureF,DewpointF,PressureIn,WindDirection,WindDirectionDegrees,WindSpeedMPH,WindSpeedGustMPH,Humidity,HourlyPrecipIn,Conditions,Clouds,dailyrainin,SoftwareType,DateUTC
2013-01-16 00:02:00,20.0,14.0,-100.00,WNW,290,2.0,3.0,80,-99.99,,,-99.99,,2013-01-16 06:02:00,
2013-01-16 00:12:00,19.0,14.0,-100.00,WNW,285,2.0,3.0,79,-99.99,,,-99.99,,2013-01-16 06:12:00,
2013-01-16 00:22:00,19.0,13.0,-100.00,NW,315,4.0,4.0,79,-99.99,,,-99.99,,2013-01-16 06:22:00,
2013-01-16 00:32:00,19.0,13.0,-100.00,NW,315,4.0,4.0,79,-99.99,,,-99.99,,2013-01-16 06:32:00,
2013-01-16 00:43:00,19.0,14.0,-100.00,NW,320,4.0,5.0,79,-99.99,,,-99.99,,2013-01-16 06:43:00,
2013-01-16 00:53:00,19.0,13.0,-100.00,NW,315,3.0,4.0,76,-99.99,,,-99.99,,2013-01-16 06:53:00,
2013-01-16 01:02:00,19.0,13.0,-100.00,NW,315,3.0,4.0,76,-99.99,,,-99.99,,2013-01-16 07:02:00,
2013-01-16 01:12:00,18.0,12.0,-100.00,NW,315,4.0,4.0,76,-99.99,,,-99.99,,2013-01-16 07:12:00,
2013-01-16 01:22:00,18.0,12.0,-100.00,NW,305,3.0,4.0,76,-99.99,,,-99.99,,2013-01-16 07:22:00,
2013-01-16 01:33:00,18.0,12.0,-100.00,NW,305,3.0,4.0,76,-99.99,,,-99.99,,2013-01-16 07:33:00,
2013-01-16 01:42:00,18.0,12.0,-100.00,West,280,2.0,4.0,76,-99.99,,,-99.99,,2013-01-16 07:42:00,
2013-01-16 01:52:00,17.0,10.0,-100.00,WSW,255,2.0,3.0,76,-99.99,,,-99.99,,2013-01-16 07:52:00,
2013-01-16 02:02:00,17.0,10.0,-100.00,WSW,255,2.0,3.0,76,-99.99,,,-99.99,,2013-01-16 08:02:00,
2013-01-16 02:12:00,16.0,10.0,-100.00,SW,220,1.0,2.0,78,-99.99,,,-99.99,,2013-01-16 08:12:00,
2013-01-16 02:22:00,15.0,10.0,-100.00,SW,230,1.0,2.0,80,-99.99,,,-99.99,,2013-01-16 08:22:00,
2013-01-16 02:32:00,15.0,10.0,-100.00,SW,230,1.0,2.0,80,-99.99,,,-99.99,,2013-01-16 08:32:00,
2013-01-16 02:42:00,16.0,11.0,-100.00,WSW,255,2.0,3.0,81,-99.99,,,-99.99,,2013-01-16 08:42:00,
2013-01-16 02:53:00,16.0,11.0,-100.00,SW,230,3.0,4.0,82,-99.99,,,-99.99,,2013-01-16 08:53:00,
2013-01-16 03:02:00,16.0,11.0,-100.00,SW,230,3.0,4.0,82,-99.99,,,-99.99,,2013-01-16 09:02:00,
2013-01-16 03:12:00,16.0,11.0,-100.00,SW,220,2.0,3.0,83,-99.99,,,-99.99,,2013-01-16 09:12:00,
2013-01-16 03:22:00,15.0,11.0,-100.00,SSW,200,4.0,4.0,83,-99.99,,,-99.99,,2013-01-16 09:22:00,
2013-01-16 03:32:00,15.0,11.0,-100.00,SSW,200,4.0,4.0,83,-99.99,,,-99.99,,2013-01-16 09:32:00,
2013-01-16 03:42:00,15.0,11.0,-100.00,SSW,210,4.0,4.0,84,-99.99,,,-99.99,,2013-01-16 09:42:00,
2013-01-16 03:53:00,16.0,12.0,-100.00,SW,230,4.0,4.0,84,-99.99,,,-99.99,,2013-01-16 09:53:00,
2013-01-16 04:02:00,16.0,12.0,-100.00,SW,230,4.0,4.0,84,-99.99,,,-99.99,,2013-01-16 10:02:00,
2013-01-16 04:12:00,16.0,12.0,-100.00,West,260,3.0,4.0,84,-99.99,,,-99.99,,2013-01-16 10:12:00,
2013-01-16 04:22:00,16.0,12.0,-100.00,SW,230,4.0,4.0,83,-99.99,,,-99.99,,2013-01-16 10:22:00,
2013-01-16 04:32:00,16.0,12.0,-100.00,SW,230,4.0,4.0,83,-99.99,,,-99.99,,2013-01-16 10:32:00,
2013-01-16 04:42:00,16.0,11.0,-100.00,SW,225,3.0,4.0,83,-99.99,,,-99.99,,2013-01-16 10:42:00,
2013-01-16 04:53:00,15.0,11.0,-100.00,SW,220,3.0,4.0,83,-99.99,,,-99.99,,2013-01-16 10:53:00,
2013-01-16 05:02:00,15.0,11.0,-100.00,SW,220,3.0,4.0,83,-99.99,,,-99.99,,2013-01-16 11:02:00,
2013-01-16 05:12:00,15.0,11.0,-100.00,South,185,3.0,4.0,83,-99.99,,,-99.99,,2013-01-16 11:12:00,
2013-01-16 05:22:00,15.0,11.0,-100.00,SSW,205,4.0,4.0,83,-99.99,,,-99.99,,2013-01-16 11:22:00,
2013-01-16 05:33:00,15.0,11.0,-100.00,SSW,205,4.0,4.0,83,-99.99,,,-99.99,,2013-01-16 11:33:00,
2013-01-16 05:42:00,15.0,10.0,-100.00,SSW,205,4.0,5.0,83,-99.99,,,-99.99,,2013-01-16 11:42:00,
2013-01-16 05:53:00,14.0,10.0,-100.00,SSW,200,4.0,5.0,83,-99.99,,,-99.99,,2013-01-16 11:53:00,
2013-01-16 06:03:00,14.0,10.0,-100.00,SSW,200,4.0,5.0,83,-99.99,,,-99.99,,2013-01-16 12:03:00,
2013-01-16 06:13:00,15.0,11.0,-100.00,WSW,240,4.0,6.0,83,-99.99,,,-99.99,,2013-01-16 12:13:00,
2013-01-16 06:22:00,15.0,11.0,-100.00,West,265,5.0,6.0,81,-99.99,,,-99.99,,2013-01-16 12:22:00,
2013-01-16 06:33:00,15.0,11.0,-100.00,West,265,5.0,6.0,81,-99.99,,,-99.99,,2013-01-16 12:33:00,
2013-01-16 06:43:00,15.0,10.0,-100.00,SW,235,4.0,6.0,80,-99.99,,,-99.99,,2013-01-16 12:43:00,
2013-01-16 06:53:00,15.0,10.0,-100.00,SW,230,4.0,5.0,81,-99.99,,,-99.99,,2013-01-16 12:53:00,
2013-01-16 07:03:00,15.0,10.0,-100.00,SW,230,4.0,5.0,81,-99.99,,,-99.99,,2013-01-16 13:03:00,
2013-01-16 07:12:00,14.0,10.0,-100.00,SW,235,4.0,4.0,81,-99.99,,,-99.99,,2013-01-16 13:12:00,
2013-01-16 07:22:00,15.0,10.0,-100.00,SW,220,4.0,5.0,81,-99.99,,,-99.99,,2013-01-16 13:22:00,
2013-01-16 07:33:00,15.0,10.0,-100.00,SW,215,4.0,6.0,81,-99.99,,,-99.99,,2013-01-16 13:33:00,
2013-01-16 07:43:00,15.0,10.0,-100.00,SW,215,4.0,6.0,81,-99.99,,,-99.99,,2013-01-16 13:43:00,
2013-01-16 07:53:00,14.0,10.0,-100.00,South,185,4.0,5.0,81,-99.99,,,-99.99,,2013-01-16 13:53:00,
2013-01-16 08:03:00,14.0,10.0,-100.00,South,185,4.0,5.0,81,-99.99,,,-99.99,,2013-01-16 14:03:00,
2013-01-16 08:12:00,15.0,10.0,-100.00,SSW,195,4.0,5.0,81,-99.99,,,-99.99,,2013-01-16 14:12:00,
2013-01-16 08:23:00,16.0,11.0,-100.00,SSW,210,6.0,6.0,80,-99.99,,,-99.99,,2013-01-16 14:23:00,
2013-01-16 08:33:00,16.0,11.0,-100.00,SSW,210,6.0,6.0,80,-99.99,,,-99.99,,2013-01-16 14:33:00,
2013-01-16 08:43:00,17.0,12.0,-100.00,SW,225,4.0,6.0,78,-99.99,,,-99.99,,2013-01-16 14:43:00,
2013-01-16 08:53:00,18.0,12.0,-100.00,SW,215,4.0,6.0,76,-99.99,,,-99.99,,2013-01-16 14:53:00,
2013-01-16 09:03:00,18.0,12.0,-100.00,SW,215,4.0,6.0,76,-99.99,,,-99.99,,2013-01-16 15:03:00,
2013-01-16 09:12:00,20.0,13.0,-100.00,SSW,200,7.0,10.0,76,-99.99,,,-99.99,,2013-01-16 15:12:00,
2013-01-16 09:23:00,21.0,14.0,-100.00,SSW,205,7.0,10.0,74,-99.99,,,-99.99,,2013-01-16 15:23:00,
2013-01-16 09:33:00,21.0,14.0,-100.00,SSW,205,7.0,10.0,74,-99.99,,,-99.99,,2013-01-16 15:33:00,
2013-01-16 09:43:00,22.0,14.0,-100.00,SW,220,6.0,10.0,71,-99.99,,,-99.99,,2013-01-16 15:43:00,
2013-01-16 09:53:00,24.0,15.0,-100.00,SSW,210,8.0,11.0,69,-99.99,,,-99.99,,2013-01-16 15:53:00,
2013-01-16 10:03:00,24.0,15.0,-100.00,SSW,210,8.0,11.0,69,-99.99,,,-99.99,,2013-01-16 16:03:00,
2013-01-16 10:12:00,25.0,16.0,-100.00,SW,220,7.0,10.0,68,-99.99,,,-99.99,,2013-01-16 16:12:00,
2013-01-16 10:22:00,26.0,16.0,-100.00,SSW,210,6.0,11.0,67,-99.99,,,-99.99,,2013-01-16 16:22:00,
2013-01-16 10:33:00,26.0,16.0,-100.00,SSW,210,6.0,11.0,67,-99.99,,,-99.99,,2013-01-16 16:33:00,
2013-01-16 10:42:00,27.0,17.0,-100.00,SW,225,7.0,12.0,65,-99.99,,,-99.99,,2013-01-16 16:42:00,
2013-01-16 10:53:00,28.0,17.0,-100.00,SW,225,9.0,12.0,63,-99.99,,,-99.99,,2013-01-16 16:53:00,
2013-01-16 11:03:00,28.0,17.0,-100.00,SW,225,9.0,12.0,63,-99.99,,,-99.99,,2013-01-16 17:03:00,
2013-01-16 11:12:00,30.0,18.0,-100.00,SW,230,7.0,13.0,61,-99.99,,,-99.99,,2013-01-16 17:12:00,
2013-01-16 11:23:00,31.0,19.0,-100.00,SW,225,9.0,14.0,60,-99.99,,,-99.99,,2013-01-16 17:23:00,
2013-01-16 11:33:00,31.0,19.0,-100.00,SW,225,9.0,14.0,60,-99.99,,,-99.99,,2013-01-16 17:33:00,
2013-01-16 11:43:00,32.0,18.0,-100.00,SW,230,10.0,17.0,56,-99.99,,,-99.99,,2013-01-16 17:43:00,
2013-01-16 11:53:00,33.0,19.0,-100.00,SW,230,11.0,19.0,56,-99.99,,,-99.99,,2013-01-16 17:53:00,
2013-01-16 12:03:00,33.0,19.0,-100.00,SW,230,11.0,19.0,56,-99.99,,,-99.99,,2013-01-16 18:03:00,
2013-01-16 12:13:00,34.0,19.0,-100.00,SW,215,11.0,16.0,55,-99.99,,,-99.99,,2013-01-16 18:13:00,
2013-01-16 12:23:00,35.0,20.0,-100.00,SW,215,11.0,15.0,54,-99.99,,,-99.99,,2013-01-16 18:23:00,
2013-01-16 12:33:00,35.0,20.0,-100.00,SW,215,11.0,15.0,54,-99.99,,,-99.99,,2013-01-16 18:33:00,
2013-01-16 12:42:00,35.0,20.0,-100.00,SW,230,12.0,18.0,53,-99.99,,,-99.99,,2013-01-16 18:42:00,
2013-01-16 12:53:00,36.0,20.0,-100.00,SW,225,11.0,19.0,52,-99.99,,,-99.99,,2013-01-16 18:53:00,
2013-01-16 13:03:00,36.0,20.0,-100.00,SW,225,11.0,19.0,52,-99.99,,,-99.99,,2013-01-16 19:03:00,
2013-01-16 13:12:00,36.0,21.0,-100.00,SW,220,9.0,17.0,53,-99.99,,,-99.99,,2013-01-16 19:12:00,
2013-01-16 13:23:00,36.0,20.0,-100.00,SW,225,12.0,17.0,52,-99.99,,,-99.99,,2013-01-16 19:23:00,
2013-01-16 13:30:00,38.0,20.0,-100.00,SW,225,13.0,20.0,47,-99.99,,,-99.99,,2013-01-16 19:30:00,
2013-01-16 13:33:00,36.0,20.0,-100.00,SW,225,12.0,17.0,52,-99.99,,,-99.99,,2013-01-16 19:33:00,
2013-01-16 13:43:00,37.0,21.0,-100.00,SW,220,10.0,17.0,51,-99.99,,,-99.99,,2013-01-16 19:43:00,
2013-01-16 13:53:00,38.0,20.0,-100.00,SW,215,14.0,20.0,49,-99.99,,,-99.99,,2013-01-16 19:53:00,
2013-01-16 14:03:00,38.0,20.0,-100.00,SW,215,14.0,20.0,49,-99.99,,,-99.99,,2013-01-16 20:03:00,
2013-01-16 14:12:00,38.0,20.0,-100.00,SW,225,13.0,20.0,47,-99.99,,,-99.99,,2013-01-16 20:12:00,
2013-01-16 14:23:00,38.0,20.0,-100.00,SW,225,13.0,20.0,47,-99.99,,,-99.99,,2013-01-16 20:23:00,
2013-01-16 14:43:00,37.0,20.0,-100.00,SW,225,9.0,19.0,50,-99.99,,,-99.99,,2013-01-16 20:43:00,
2013-01-16 14:53:00,37.0,20.0,-100.00,SW,235,13.0,19.0,50,-99.99,,,-99.99,,2013-01-16 20:53:00,
2013-01-16 15:03:00,37.0,20.0,-100.00,SW,235,13.0,19.0,50,-99.99,,,-99.99,,2013-01-16 21:03:00,
2013-01-16 15:12:00,37.0,21.0,-100.00,SW,235,11.0,17.0,52,-99.99,,,-99.99,,2013-01-16 21:12:00,
2013-01-16 15:22:00,36.0,20.0,-100.00,WSW,240,11.0,19.0,52,-99.99,,,-99.99,,2013-01-16 21:22:00,
2013-01-16 15:33:00,36.0,20.0,-100.00,WSW,240,11.0,19.0,52,-99.99,,,-99.99,,2013-01-16 21:33:00,
2013-01-16 15:43:00,36.0,21.0,-100.00,WSW,240,11.0,16.0,53,-99.99,,,-99.99,,2013-01-16 21:43:00,
2013-01-16 15:53:00,36.0,22.0,-100.00,WSW,240,11.0,15.0,55,-99.99,,,-99.99,,2013-01-16 21:53:00,
2013-01-16 16:03:00,36.0,22.0,-100.00,WSW,240,11.0,15.0,55,-99.99,,,-99.99,,2013-01-16 22:03:00,
2013-01-16 16:12:00,36.0,22.0,-100.00,WSW,255,9.0,14.0,57,-99.99,,,-99.99,,2013-01-16 22:12:00,
2013-01-16 16:23:00,36.0,22.0,-100.00,SW,235,9.0,14.0,57,-99.99,,,-99.99,,2013-01-16 22:23:00,
2013-01-16 16:33:00,36.0,22.0,-100.00,SW,235,9.0,14.0,57,-99.99,,,-99.99,,2013-01-16 22:33:00,
2013-01-16 16:43:00,36.0,23.0,-100.00,SW,235,9.0,11.0,58,-99.99,,,-99.99,,2013-01-16 22:43:00,
2013-01-16 16:53:00,36.0,23.0,-100.00,WSW,240,8.0,13.0,60,-99.99,,,-99.99,,2013-01-16 22:53:00,
2013-01-16 17:03:00,36.0,23.0,-100.00,WSW,240,8.0,13.0,60,-99.99,,,-99.99,,2013-01-16 23:03:00,
2013-01-16 17:12:00,36.0,23.0,-100.00,WSW,250,8.0,11.0,60,-99.99,,,-99.99,,2013-01-16 23:12:00,
2013-01-16 17:23:00,36.0,23.0,-100.00,WSW,250,10.0,13.0,60,-99.99,,,-99.99,,2013-01-16 23:23:00,
2013-01-16 17:32:00,36.0,23.0,-100.00,WSW,250,10.0,13.0,60,-99.99,,,-99.99,,2013-01-16 23:32:00,
2013-01-16 17:42:00,36.0,23.0,-100.00,WSW,250,9.0,13.0,60,-99.99,,,-99.99,,2013-01-16 23:42:00,
2013-01-16 17:53:00,36.0,23.0,-100.00,WSW,245,8.0,11.0,60,-99.99,,,-99.99,,2013-01-16 23:53:00,
2013-01-16 18:02:00,36.0,23.0,-100.00,WSW,245,8.0,11.0,60,-99.99,,,-99.99,,2013-01-17 00:02:00,
2013-01-16 18:12:00,35.0,23.0,-100.00,WSW,255,7.0,10.0,61,-99.99,,,-99.99,,2013-01-17 00:12:00,
2013-01-16 18:22:00,35.0,24.0,-100.00,WSW,250,7.0,10.0,62,-99.99,,,-99.99,,2013-01-17 00:22:00,
2013-01-16 18:32:00,35.0,24.0,-100.00,WSW,250,7.0,10.0,62,-99.99,,,-99.99,,2013-01-17 00:32:00,
2013-01-16 18:42:00,35.0,24.0,-100.00,WSW,250,6.0,9.0,62,-99.99,,,-99.99,,2013-01-17 00:42:00,
2013-01-16 18:52:00,35.0,24.0,-100.00,WSW,245,6.0,9.0,64,-99.99,,,-99.99,,2013-01-17 00:52:00,
2013-01-16 19:02:00,35.0,24.0,-100.00,WSW,245,6.0,9.0,64,-99.99,,,-99.99,,2013-01-17 01:02:00,
2013-01-16 19:12:00,35.0,24.0,-100.00,WSW,245,7.0,10.0,65,-99.99,,,-99.99,,2013-01-17 01:12:00,
2013-01-16 19:22:00,35.0,24.0,-100.00,WSW,240,7.0,9.0,66,-99.99,,,-99.99,,2013-01-17 01:22:00,
2013-01-16 19:33:00,35.0,25.0,-100.00,SW,225,7.0,11.0,66,-99.99,,,-99.99,,2013-01-17 01:33:00,
2013-01-16 19:42:00,35.0,25.0,-100.00,SW,225,7.0,11.0,66,-99.99,,,-99.99,,2013-01-17 01:42:00,
2013-01-16 19:52:00,35.0,25.0,-100.00,WSW,245,7.0,11.0,66,-99.99,,,-99.99,,2013-01-17 01:52:00,
2013-01-16 20:02:00,35.0,25.0,-100.00,WSW,245,7.0,11.0,66,-99.99,,,-99.99,,2013-01-17 02:02:00,
2013-01-16 20:12:00,35.0,25.0,-100.00,WSW,240,7.0,10.0,66,-99.99,,,-99.99,,2013-01-17 02:12:00,
2013-01-16 20:22:00,35.0,25.0,-100.00,SW,235,8.0,10.0,66,-99.99,,,-99.99,,2013-01-17 02:22:00,
2013-01-16 20:32:00,35.0,25.0,-100.00,SW,235,8.0,10.0,66,-99.99,,,-99.99,,2013-01-17 02:32:00,
2013-01-16 20:42:00,35.0,25.0,-100.00,SW,235,8.0,10.0,66,-99.99,,,-99.99,,2013-01-17 02:42:00,
2013-01-16 21:03:00,35.0,25.0,-100.00,WSW,245,7.0,11.0,67,-99.99,,,-99.99,,2013-01-17 03:03:00,
2013-01-16 21:12:00,35.0,25.0,-100.00,SW,235,7.0,11.0,67,-99.99,,,-99.99,,2013-01-17 03:12:00,
2013-01-16 21:22:00,35.0,26.0,-100.00,WSW,250,8.0,10.0,68,-99.99,,,-99.99,,2013-01-17 03:22:00,
2013-01-16 21:32:00,35.0,26.0,-100.00,WSW,250,8.0,10.0,68,-99.99,,,-99.99,,2013-01-17 03:32:00,
2013-01-16 21:42:00,35.0,26.0,-100.00,WSW,245,6.0,9.0,69,-99.99,,,-99.99,,2013-01-17 03:42:00,
2013-01-16 21:53:00,35.0,26.0,-100.00,WSW,245,6.0,9.0,69,-99.99,,,-99.99,,2013-01-17 03:53:00,
2013-01-16 22:02:00,35.0,26.0,-100.00,WSW,245,6.0,9.0,69,-99.99,,,-99.99,,2013-01-17 04:02:00,
2013-01-16 22:12:00,35.0,26.0,-100.00,WSW,245,6.0,10.0,69,-99.99,,,-99.99,,2013-01-17 04:12:00,
2013-01-16 22:22:00,35.0,26.0,-100.00,WSW,245,6.0,9.0,70,-99.99,,,-99.99,,2013-01-17 04:22:00,
2013-01-16 22:32:00,35.0,26.0,-100.00,WSW,245,6.0,9.0,70,-99.99,,,-99.99,,2013-01-17 04:32:00,
2013-01-16 22:42:00,35.0,26.0,-100.00,WSW,245,5.0,8.0,70,-99.99,,,-99.99,,2013-01-17 04:42:00,
2013-01-16 22:52:00,35.0,26.0,-100.00,WSW,245,6.0,8.0,70,-99.99,,,-99.99,,2013-01-17 04:52:00,
2013-01-16 23:04:00,35.0,26.0,-100.00,WSW,245,6.0,8.0,70,-99.99,,,-99.99,,2013-01-17 05:04:00,
2013-01-16 23:12:00,35.0,26.0,-100.00,WSW,245,5.0,6.0,71,-99.99,,,-99.99,,2013-01-17 05:12:00,
2013-01-16 23:22:00,35.0,27.0,-100.00,WSW,250,5.0,6.0,73,-99.99,,,-99.99,,2013-01-17 05:22:00,
2013-01-16 23:33:00,35.0,27.0,-100.00,WSW,250,5.0,6.0,73,-99.99,,,-99.99,,2013-01-17 05:33:00,
2013-01-16 23:42:00,34.0,26.0,-100.00,WSW,255,5.0,6.0,73,-99.99,,,-99.99,,2013-01-17 05:42:00,
2013-01-16 23:53:00,34.0,27.0,-100.00,West,270,4.0,6.0,75,-99.99,,,-99.99,,2013-01-17 05:53:00,